Total_Precipitation_Accumulation
0.44 0.70 0.99 1.06 1.07 0.98 0.82 0.79 0.81 0.74 0.70 0.76 0.77 0.80 0.82 0.83 0.87 0.79 0.63 0.56 0.52 0.49 0.51 0.51 0.52 0.54 0.55 0.56 0.57 0.57 0.63 0.71 0.83 1.03 1.32 1.71 1.93 2.05 2.05 2.06 1.95 1.73 1.51 1.52
0.57 0.57 0.48 0.56 0.61 0.70 0.69 0.74 0.76 0.70 0.61 0.62 0.59 0.62 0.64 0.63 0.58 0.55 0.50 0.46 0.47 0.43 0.45 0.41 0.39 0.39 0.40 0.40 0.43 0.55 0.57 0.66 0.79 1.06 1.33 1.64 1.98 2.05 2.05 2.05 2.02 1.89 1.75 1.75
0.49 0.43 0.40 0.51 0.58 0.64 0.65 0.72 0.72 0.75 0.70 0.61 0.56 0.60 0.62 0.56 0.47 0.41 0.39 0.39 0.41 0.38 0.41 0.38 0.36 0.33 0.32 0.28 0.27 0.40 0.51 0.65 0.92 1.24 1.52 1.69 1.95 2.03 2.07 2.03 2.04 2.06 2.00 1.91
0.55 0.41 0.41 0.51 0.52 0.52 0.70 0.49 0.46 0.52 0.74 0.76 0.57 0.70 0.59 0.49 0.52 0.47 0.41 0.38 0.38 0.39 0.37 0.36 0.38 0.34 0.28 0.23 0.21 0.28 0.38 0.61 0.98 1.33 1.56 1.80 2.16 2.21 2.12 2.13 2.12 2.12 2.13 2.09
0.53 0.38 0.39 0.44 0.39 0.37 0.50 0.41 0.41 0.46 0.61 0.66 0.50 0.51 0.53 0.47 0.53 0.54 0.48 0.45 0.40 0.36 0.32 0.30 0.30 0.30 0.29 0.28 0.28 0.33 0.47 0.69 0.98 1.22 1.48 1.84 2.09 2.18 2.27 2.16 2.12 2.12 2.18 2.20
0.45 0.32 0.31 0.33 0.32 0.30 0.35 0.43 0.50 0.50 0.61 0.66 0.36 0.42 0.54 0.47 0.40 0.42 0.44 0.43 0.37 0.33 0.31 0.32 0.31 0.30 0.32 0.34 0.39 0.50 0.66 0.79 1.01 1.22 1.45 1.64 1.87 2.00 2.12 2.18 2.10 2.08 2.14 2.24
0.42 0.32 0.24 0.23 0.33 0.33 0.35 0.63 0.86 0.84 0.85 0.68 0.30 0.41 0.55 0.39 0.31 0.32 0.35 0.38 0.36 0.37 0.38 0.41 0.42 0.47 0.54 0.58 0.61 0.70 0.80 0.92 1.04 1.16 1.27 1.35 1.50 1.65 1.68 1.83 1.90 2.01 2.01 2.07
0.38 0.36 0.22 0.19 0.26 0.33 0.32 0.49 0.81 0.87 0.74 0.58 0.43 0.61 0.60 0.40 0.33 0.33 0.34 0.39 0.42 0.49 0.55 0.66 0.72 0.79 0.87 0.87 0.87 0.94 0.99 0.99 1.01 1.08 1.14 1.17 1.22 1.30 1.37 1.40 1.42 1.57 1.71 1.76
0.36 0.34 0.17 0.18 0.22 0.26 0.30 0.37 0.43 0.56 0.48 0.51 0.51 0.63 0.58 0.42 0.40 0.40 0.41 0.46 0.54 0.72 0.82 0.92 1.02 1.03 1.02 1.00 0.96 0.99 1.00 0.98 0.97 1.01 1.03 0.97 0.94 1.00 1.11 1.14 1.20 1.24 1.32 1.32
0.34 0.37 0.21 0.17 0.24 0.23 0.27 0.37 0.50 0.76 0.87 0.77 0.64 0.75 0.74 0.57 0.48 0.45 0.51 0.61 0.78 1.03 1.17 1.28 1.37 1.30 1.20 1.21 1.25 1.14 1.04 0.96 0.92 0.93 0.96 0.88 0.84 0.90 0.94 0.93 0.98 0.98 0.99 1.01
0.28 0.41 0.32 0.21 0.21 0.23 0.29 0.40 0.56 0.81 0.91 1.08 1.14 1.18 0.89 0.71 0.66 0.74 0.86 0.96 1.17 1.41 1.56 1.66 1.67 1.57 1.38 1.26 1.25 1.18 1.05 0.92 0.81 0.79 0.86 0.87 0.81 0.83 0.88 0.86 0.80 0.76 0.80 0.86
0.26 0.41 0.39 0.24 0.19 0.22 0.37 0.54 0.73 1.16 1.14 1.04 1.24 1.38 0.99 0.79 0.79 0.82 0.91 1.06 1.28 1.40 1.46 1.50 1.46 1.44 1.32 1.23 1.14 1.10 0.98 0.81 0.75 0.79 0.81 0.83 0.76 0.70 0.75 0.76 0.80 0.70 0.67 0.69
0.34 0.48 0.59 0.50 0.45 0.44 0.52 0.57 0.66 0.81 1.03 1.13 1.34 1.51 1.05 0.79 0.78 0.84 0.96 1.05 1.09 1.07 1.15 1.24 1.29 1.18 1.12 1.05 1.00 1.09 1.10 0.96 0.92 0.94 0.99 0.92 0.78 0.72 0.73 0.72 0.78 0.71 0.66 0.68
0.40 0.46 0.56 0.67 0.64 0.64 0.66 0.58 0.55 0.69 0.95 1.02 1.10 1.18 0.92 0.75 0.73 0.75 0.84 0.88 0.94 0.95 0.97 1.00 1.06 1.02 1.03 0.97 0.92 1.05 1.10 1.09 1.14 1.19 1.15 0.99 0.86 0.78 0.73 0.70 0.72 0.70 0.70 0.72
0.34 0.33 0.29 0.29 0.27 0.36 0.56 0.65 0.58 0.62 0.73 0.98 0.88 0.75 0.70 0.63 0.64 0.66 0.71 0.75 0.76 0.80 0.78 0.73 0.71 0.72 0.78 0.77 0.72 0.79 0.89 0.98 1.10 1.15 1.05 0.92 0.81 0.71 0.66 0.69 0.66 0.68 0.75 0.74
0.26 0.24 0.19 0.15 0.14 0.23 0.48 0.57 0.58 0.57 0.57 0.59 0.53 0.51 0.41 0.40 0.45 0.47 0.51 0.50 0.50 0.53 0.53 0.51 0.47 0.47 0.52 0.47 0.48 0.52 0.63 0.80 0.97 1.06 0.94 0.79 0.71 0.69 0.63 0.60 0.57 0.56 0.59 0.62
0.22 0.27 0.29 0.22 0.17 0.26 0.49 0.49 0.53 0.40 0.27 0.26 0.33 0.33 0.25 0.28 0.37 0.40 0.44 0.45 0.39 0.39 0.42 0.42 0.42 0.41 0.44 0.40 0.41 0.49 0.56 0.71 0.79 0.81 0.75 0.63 0.58 0.54 0.51 0.49 0.49 0.51 0.52 0.54
0.18 0.29 0.41 0.33 0.32 0.54 0.67 0.52 0.45 0.37 0.22 0.15 0.17 0.17 0.18 0.23 0.30 0.32 0.37 0.42 0.37 0.33 0.36 0.38 0.39 0.39 0.44 0.48 0.50 0.59 0.64 0.65 0.67 0.71 0.70 0.60 0.53 0.48 0.46 0.44 0.45 0.52 0.52 0.51
0.22 0.32 0.45 0.43 0.45 0.52 0.52 0.36 0.33 0.42 0.39 0.17 0.13 0.13 0.14 0.18 0.23 0.23 0.25 0.29 0.28 0.24 0.22 0.22 0.24 0.26 0.30 0.35 0.40 0.42 0.43 0.46 0.47 0.49 0.54 0.49 0.41 0.43 0.46 0.45 0.49 0.52 0.53 0.55
0.35 0.35 0.50 0.49 0.50 0.57 0.43 0.20 0.17 0.31 0.53 0.23 0.10 0.08 0.07 0.10 0.17 0.15 0.13 0.15 0.15 0.14 0.12 0.11 0.12 0.13 0.15 0.19 0.28 0.31 0.30 0.26 0.25 0.27 0.32 0.34 0.32 0.34 0.41 0.52 0.58 0.54 0.50 0.55
0.29 0.35 0.45 0.57 0.68 0.77 0.52 0.25 0.19 0.41 0.53 0.22 0.08 0.04 0.04 0.05 0.06 0.07 0.09 0.10 0.09 0.09 0.11 0.10 0.09 0.10 0.13 0.18 0.20 0.22 0.27 0.23 0.20 0.21 0.22 0.24 0.26 0.30 0.38 0.45 0.44 0.43 0.44 0.47
0.40 0.50 0.61 0.73 0.93 1.06 0.67 0.43 0.39 0.36 0.23 0.12 0.06 0.04 0.04 0.04 0.05 0.06 0.07 0.08 0.07 0.07 0.08 0.09 0.09 0.12 0.14 0.14 0.14 0.16 0.18 0.18 0.18 0.17 0.18 0.19 0.19 0.20 0.24 0.31 0.35 0.36 0.37 0.38
0.38 0.63 0.80 0.77 0.80 0.71 0.52 0.41 0.30 0.22 0.15 0.06 0.05 0.04 0.04 0.03 0.03 0.04 0.05 0.06 0.06 0.05 0.06 0.07 0.11 0.14 0.15 0.15 0.13 0.13 0.15 0.18 0.20 0.18 0.16 0.16 0.18 0.19 0.20 0.26 0.29 0.33 0.36 0.37
0.22 0.26 0.30 0.31 0.33 0.30 0.25 0.20 0.16 0.12 0.08 0.04 0.03 0.04 0.05 0.04 0.04 0.05 0.05 0.05 0.06 0.05 0.05 0.07 0.12 0.13 0.13 0.13 0.14 0.14 0.15 0.15 0.17 0.15 0.15 0.16 0.18 0.19 0.19 0.22 0.28 0.35 0.35 0.30
0.19 0.17 0.17 0.17 0.15 0.15 0.14 0.12 0.10 0.08 0.05 0.03 0.03 0.04 0.06 0.05 0.05 0.05 0.06 0.08 0.09 0.06 0.05 0.07 0.10 0.12 0.13 0.14 0.15 0.16 0.15 0.14 0.15 0.14 0.13 0.14 0.16 0.18 0.18 0.17 0.19 0.27 0.29 0.27
0.15 0.18 0.18 0.15 0.09 0.10 0.11 0.08 0.07 0.07 0.04 0.04 0.04 0.05 0.05 0.05 0.06 0.08 0.07 0.10 0.12 0.09 0.06 0.06 0.07 0.10 0.12 0.13 0.16 0.17 0.19 0.18 0.17 0.15 0.15 0.16 0.15 0.17 0.16 0.15 0.17 0.20 0.20 0.23